TimeBST,TemperatureF,Dew PointF,Humidity,Sea Level PressureIn,VisibilityMPH,Wind Direction,Wind SpeedMPH,Gust SpeedMPH,PrecipitationIn,Events,Conditions,WindDirDegrees,DateUTC
12:20 AM,42.8,35.6,76,30.06,6.2,East,5.8,-,N/A,,Mostly Cloudy,80,2012-10-08 23:20:00
1:20 AM,41.0,33.8,76,30.06,6.2,East,2.3,-,N/A,,Scattered Clouds,80,2012-10-09 00:20:00
1:50 AM,39.2,35.6,87,30.06,6.2,North,2.3,-,N/A,,Scattered Clouds,350,2012-10-09 00:50:00
2:20 AM,39.2,35.6,87,30.06,6.2,Variable,2.3,-,N/A,,Scattered Clouds,0,2012-10-09 01:20:00
2:50 AM,35.6,33.8,93,30.06,6.2,SW,3.5,-,N/A,,Scattered Clouds,230,2012-10-09 01:50:00
3:20 AM,35.6,33.8,93,30.06,6.2,Variable,2.3,-,N/A,,Mostly Cloudy,0,2012-10-09 02:20:00
3:50 AM,33.8,32.0,93,30.06,6.2,Variable,2.3,-,N/A,,Overcast,0,2012-10-09 02:50:00
4:20 AM,35.6,33.8,93,30.06,6.2,Calm,Calm,-,N/A,,Overcast,0,2012-10-09 03:20:00
4:50 AM,33.8,32.0,93,30.06,6.2,Calm,Calm,-,N/A,,Scattered Clouds,0,2012-10-09 03:50:00
5:20 AM,33.8,32.0,93,30.06,-9999.0,West,3.5,-,N/A,,Clear,260,2012-10-09 04:20:00
5:50 AM,32.0,32.0,100,30.06,6.2,West,2.3,-,N/A,Fog,Shallow Fog,260,2012-10-09 04:50:00
6:20 AM,33.8,32.0,93,30.06,6.2,Variable,2.3,-,N/A,Fog,Shallow Fog,0,2012-10-09 05:20:00
6:50 AM,32.0,30.2,93,30.06,6.2,SSW,2.3,-,N/A,Fog,Shallow Fog,210,2012-10-09 05:50:00
7:20 AM,30.2,30.2,100,30.06,6.2,WSW,3.5,-,N/A,Fog,Shallow Fog,250,2012-10-09 06:20:00
7:50 AM,32.0,30.2,93,30.09,6.2,North,2.3,-,N/A,Fog,Shallow Fog,350,2012-10-09 06:50:00
8:20 AM,32.0,32.0,100,30.09,6.2,Calm,Calm,-,N/A,Fog,Unknown,0,2012-10-09 07:20:00
8:50 AM,33.8,33.8,100,30.09,-9999.0,Calm,Calm,-,N/A,,Clear,0,2012-10-09 07:50:00
9:20 AM,35.6,33.8,93,30.09,-9999.0,West,2.3,-,N/A,,Clear,270,2012-10-09 08:20:00
9:50 AM,39.2,35.6,87,30.09,-9999.0,Calm,Calm,-,N/A,,Clear,0,2012-10-09 08:50:00
10:20 AM,42.8,37.4,81,30.09,-9999.0,Variable,2.3,-,N/A,,Clear,0,2012-10-09 09:20:00
10:50 AM,44.6,37.4,76,30.09,-9999.0,Calm,Calm,-,N/A,,Clear,0,2012-10-09 09:50:00
11:20 AM,46.4,37.4,71,30.09,-9999.0,Calm,Calm,-,N/A,,Clear,0,2012-10-09 10:20:00
11:50 AM,48.2,39.2,71,30.09,-9999.0,Variable,3.5,-,N/A,,Clear,0,2012-10-09 10:50:00
12:20 PM,48.2,37.4,66,30.09,-9999.0,Variable,3.5,-,N/A,,Clear,0,2012-10-09 11:20:00
12:50 PM,50.0,37.4,62,30.09,6.2,Variable,3.5,-,N/A,,Partly Cloudy,0,2012-10-09 11:50:00
1:20 PM,50.0,35.6,58,30.09,6.2,Calm,Calm,-,N/A,,Partly Cloudy,0,2012-10-09 12:20:00
1:50 PM,50.0,33.8,54,30.09,6.2,Calm,Calm,-,N/A,,Partly Cloudy,0,2012-10-09 12:50:00
2:20 PM,50.0,33.8,54,30.06,6.2,ESE,4.6,-,N/A,,Partly Cloudy,120,2012-10-09 13:20:00
2:50 PM,51.8,33.8,50,30.06,-9999.0,Variable,3.5,-,N/A,,Clear,0,2012-10-09 13:50:00
3:20 PM,51.8,33.8,50,30.06,-9999.0,Variable,2.3,-,N/A,,Clear,0,2012-10-09 14:20:00
3:50 PM,51.8,33.8,50,30.04,-9999.0,Variable,2.3,-,N/A,,Clear,0,2012-10-09 14:50:00
4:20 PM,53.6,35.6,51,30.06,-9999.0,Variable,2.3,-,N/A,,Clear,0,2012-10-09 15:20:00
4:50 PM,51.8,35.6,54,30.04,-9999.0,Calm,Calm,-,N/A,,Clear,0,2012-10-09 15:50:00
5:20 PM,51.8,37.4,58,30.04,-9999.0,NW,2.3,-,N/A,,Clear,320,2012-10-09 16:20:00
5:50 PM,50.0,37.4,62,30.04,-9999.0,NNE,2.3,-,N/A,,Clear,20,2012-10-09 16:50:00
6:20 PM,48.2,37.4,66,30.04,-9999.0,North,2.3,-,N/A,,Clear,360,2012-10-09 17:20:00
6:50 PM,44.6,35.6,71,30.04,-9999.0,Calm,Calm,-,N/A,,Clear,0,2012-10-09 17:50:00
7:20 PM,41.0,35.6,81,30.04,-9999.0,WSW,3.5,-,N/A,,Clear,250,2012-10-09 18:20:00
7:50 PM,41.0,37.4,87,30.04,-9999.0,West,3.5,-,N/A,,Clear,270,2012-10-09 18:50:00
8:20 PM,41.0,37.4,87,30.06,-9999.0,WSW,2.3,-,N/A,,Clear,240,2012-10-09 19:20:00
8:50 PM,35.6,33.8,93,30.04,-9999.0,West,3.5,-,N/A,,Clear,260,2012-10-09 19:50:00
9:20 PM,37.4,35.6,93,30.04,-9999.0,WNW,2.3,-,N/A,,Clear,290,2012-10-09 20:20:00
9:50 PM,37.4,35.6,93,30.06,-9999.0,West,2.3,-,N/A,,Clear,260,2012-10-09 20:50:00
10:20 PM,35.6,33.8,93,30.04,-9999.0,Variable,2.3,-,N/A,,Clear,0,2012-10-09 21:20:00
10:50 PM,37.4,35.6,93,30.04,-9999.0,Calm,Calm,-,N/A,,Clear,0,2012-10-09 21:50:00
11:20 PM,37.4,33.8,87,30.04,-9999.0,WSW,2.3,-,N/A,,Clear,240,2012-10-09 22:20:00
11:50 PM,35.6,33.8,93,30.04,-9999.0,West,2.3,-,N/A,,Clear,270,2012-10-09 22:50:00